| time (UTC) | temp F | wind direction | speed MPH | gust MPH | rain 1hr in | rain 24hr in | rain mn in | humidity % | barometer mb |
| 20260505024848 | 57 | 75 | 0.0 | 0.0 | 0.00 | 0.00 | 0.00 | 66 | 1012.0 |
| 20260505024345 | 57 | 75 | 0.0 | 0.0 | 0.00 | 0.00 | 0.00 | 66 | 1011.6 |
| 20260505023842 | 57 | 75 | 0.0 | 0.0 | 0.00 | 0.00 | 0.00 | 67 | 1011.9 |
| 20260505023339 | 57 | 75 | 0.0 | 0.0 | 0.00 | 0.00 | 0.00 | 66 | 1011.7 |
| 20260505022836 | 57 | 75 | 0.0 | 0.0 | 0.00 | 0.00 | 0.00 | 66 | 1011.8 |
| 20260505022333 | 57 | 75 | 0.0 | 0.0 | 0.00 | 0.00 | 0.00 | 66 | 1011.6 |
| 20260505021830 | 57 | 96 | 0.0 | 0.0 | 0.00 | 0.00 | 0.00 | 67 | 1011.9 |
| 20260505021326 | 57 | 96 | 0.0 | 0.0 | 0.00 | 0.00 | 0.00 | 67 | 1011.8 |
| 20260505020822 | 58 | 96 | 0.0 | 0.0 | 0.00 | 0.00 | 0.00 | 67 | 1011.8 |
| 20260505020318 | 58 | 97 | 0.0 | 0.0 | 0.00 | 0.00 | 0.00 | 66 | 1011.7 |
| 20260505015815 | 58 | 76 | 0.0 | 0.0 | 0.00 | 0.00 | 0.00 | 65 | 1011.8 |
| 20260505015312 | 58 | 76 | 0.0 | 0.0 | 0.00 | 0.00 | 0.00 | 65 | 1011.9 |
| 20260505014810 | 59 | 76 | 0.0 | 0.0 | 0.00 | 0.00 | 0.00 | 65 | 1011.6 |
| 20260505014307 | 59 | 76 | 0.0 | 0.0 | 0.00 | 0.00 | 0.00 | 66 | 1011.4 |
| 20260505013803 | 59 | 96 | 0.0 | 0.0 | 0.00 | 0.00 | 0.00 | 64 | 1011.4 |
| 20260505013300 | 58 | 91 | 0.0 | 0.0 | 0.00 | 0.00 | 0.00 | 66 | 1011.4 |
| 20260505012759 | 58 | 65 | 0.0 | 0.0 | 0.00 | 0.00 | 0.00 | 65 | 1011.6 |
| 20260505012256 | 59 | 65 | 0.0 | 0.0 | 0.00 | 0.00 | 0.00 | 65 | 1011.6 |
| 20260505011751 | 59 | 64 | 0.0 | 0.0 | 0.00 | 0.00 | 0.00 | 63 | 1011.5 |
| 20260505011248 | 60 | 65 | 0.0 | 0.0 | 0.00 | 0.00 | 0.00 | 62 | 1011.5 |
| 20260505010744 | 60 | 64 | 0.0 | 0.0 | 0.00 | 0.00 | 0.00 | 61 | 1011.4 |
| 20260505010240 | 61 | 64 | 0.0 | 0.0 | 0.00 | 0.00 | 0.00 | 60 | 1011.3 |
| 20260505005737 | 61 | 64 | 0.0 | 0.0 | 0.00 | 0.00 | 0.00 | 58 | 1011.2 |
| 20260505005234 | 62 | 64 | 0.0 | 0.0 | 0.00 | 0.00 | 0.00 | 58 | 1011.2 |
| 20260505004731 | 62 | 65 | 0.0 | 0.0 | 0.00 | 0.00 | 0.00 | 57 | 1011.1 |
| 20260505004227 | 63 | 65 | 0.0 | 0.0 | 0.00 | 0.00 | 0.00 | 56 | 1010.9 |
| 20260505003725 | 64 | 65 | 0.0 | 0.0 | 0.00 | 0.00 | 0.00 | 55 | 1010.9 |
| 20260505003223 | 64 | 114 | 0.0 | 0.0 | 0.00 | 0.00 | 0.00 | 54 | 1011.0 |
| 20260505002718 | 64 | 104 | 0.0 | 0.0 | 0.00 | 0.00 | 0.00 | 53 | 1011.1 |
| 20260505002216 | 65 | 115 | 0.0 | 0.0 | 0.00 | 0.00 | 0.00 | 52 | 1011.0 |
| 20260505001714 | 65 | 115 | 0.0 | 0.0 | 0.00 | 0.00 | 0.00 | 51 | 1011.0 |
| 20260505001211 | 65 | 110 | 0.0 | 0.0 | 0.00 | 0.00 | 0.00 | 50 | 1011.2 |
| 20260505000708 | 66 | 114 | 0.0 | 0.0 | 0.00 | 0.00 | 0.00 | 49 | 1010.9 |
| 20260505000206 | 66 | 137 | 0.0 | 0.0 | 0.00 | 0.00 | 0.00 | 49 | 1010.9 |
| 20260504235702 | 67 | 123 | 0.0 | 0.0 | 0.00 | 0.00 | 0.00 | 48 | 1011.0 |
| 20260504235158 | 68 | 124 | 0.0 | 0.0 | 0.00 | 0.00 | 0.00 | 47 | 1010.7 |
| 20260504234656 | 68 | 118 | 0.0 | 0.0 | 0.00 | 0.00 | 0.00 | 46 | 1010.8 |
| 20260504234153 | 68 | 111 | 0.0 | 0.0 | 0.00 | 0.00 | 0.00 | 45 | 1011.0 |
| 20260504233648 | 69 | 151 | 0.0 | 0.0 | 0.00 | 0.00 | 0.00 | 44 | 1010.9 |
| 20260504233144 | 69 | 176 | 1.0 | 2.0 | 0.00 | 0.00 | 0.00 | 44 | 1010.9 |
| 20260504232642 | 69 | 132 | 0.0 | 0.0 | 0.00 | 0.00 | 0.00 | 44 | 1010.9 |
| 20260504232139 | 70 | 89 | 0.0 | 0.0 | 0.00 | 0.00 | 0.00 | 44 | 1011.1 |
| 20260504231636 | 70 | 161 | 0.0 | 0.0 | 0.00 | 0.00 | 0.00 | 43 | 1011.0 |
| 20260504231132 | 70 | 199 | 1.0 | 2.0 | 0.00 | 0.00 | 0.00 | 42 | 1011.0 |
| 20260504230628 | 71 | 121 | 1.0 | 2.0 | 0.00 | 0.00 | 0.00 | 42 | 1010.8 |
| 20260504230127 | 71 | 182 | 1.0 | 2.0 | 0.00 | 0.00 | 0.00 | 42 | 1010.7 |
| 20260504225625 | 71 | 123 | 0.0 | 1.0 | 0.00 | 0.00 | 0.00 | 41 | 1011.0 |
| 20260504225121 | 71 | 144 | 2.0 | 3.0 | 0.00 | 0.00 | 0.00 | 41 | 1010.8 |
| 20260504224618 | 71 | 251 | 2.0 | 4.0 | 0.00 | 0.00 | 0.00 | 41 | 1010.8 |
| 20260504224115 | 72 | 59 | 0.0 | 0.0 | 0.00 | 0.00 | 0.00 | 42 | 1010.8 |
| 20260504223612 | 72 | 194 | 1.0 | 1.0 | 0.00 | 0.00 | 0.00 | 41 | 1010.7 |
| 20260504223108 | 73 | 142 | 1.0 | 1.0 | 0.00 | 0.00 | 0.00 | 40 | 1010.6 |
| 20260504222605 | 73 | 167 | 1.0 | 1.0 | 0.00 | 0.00 | 0.00 | 39 | 1010.7 |
| 20260504222102 | 74 | 154 | 1.0 | 1.0 | 0.00 | 0.00 | 0.00 | 39 | 1010.7 |
| 20260504221559 | 75 | 168 | 2.0 | 3.0 | 0.00 | 0.00 | 0.00 | 37 | 1010.7 |
| 20260504221055 | 75 | 166 | 4.0 | 6.0 | 0.00 | 0.00 | 0.00 | 35 | 1010.7 |
| 20260504220552 | 75 | 181 | 2.0 | 2.0 | 0.00 | 0.00 | 0.00 | 34 | 1010.6 |
| 20260504220049 | 75 | 166 | 0.0 | 1.0 | 0.00 | 0.00 | 0.00 | 34 | 1010.7 |
| 20260504215546 | 75 | 186 | 1.0 | 2.0 | 0.00 | 0.00 | 0.00 | 35 | 1010.5 |
| 20260504215043 | 75 | 218 | 2.0 | 3.0 | 0.00 | 0.00 | 0.00 | 35 | 1010.5 |
| 20260504214539 | 74 | 113 | 1.0 | 1.0 | 0.00 | 0.00 | 0.00 | 35 | 1010.7 |
| 20260504214036 | 74 | 183 | 0.0 | 1.0 | 0.00 | 0.00 | 0.00 | 34 | 1010.8 |
| 20260504213532 | 74 | 168 | 1.0 | 1.0 | 0.00 | 0.00 | 0.00 | 35 | 1010.8 |
| 20260504213029 | 74 | 150 | 0.0 | 0.0 | 0.00 | 0.00 | 0.00 | 36 | 1010.8 |
| 20260504212525 | 74 | 127 | 1.0 | 2.0 | 0.00 | 0.00 | 0.00 | 35 | 1010.7 |
| 20260504212023 | 75 | 29 | 1.0 | 1.0 | 0.00 | 0.00 | 0.00 | 34 | 1010.8 |
| 20260504211520 | 75 | 325 | 2.0 | 3.0 | 0.00 | 0.00 | 0.00 | 35 | 1010.9 |
| 20260504211017 | 75 | 338 | 1.0 | 1.0 | 0.00 | 0.00 | 0.00 | 36 | 1010.8 |
| 20260504210514 | 75 | 234 | 4.0 | 4.0 | 0.00 | 0.00 | 0.00 | 34 | 1010.8 |
| 20260504210010 | 75 | 43 | 1.0 | 1.0 | 0.00 | 0.00 | 0.00 | 35 | 1010.9 |
| 20260504205508 | 76 | 253 | 1.0 | 1.0 | 0.00 | 0.00 | 0.00 | 35 | 1010.9 |
| 20260504205006 | 76 | 184 | 2.0 | 2.0 | 0.00 | 0.00 | 0.00 | 34 | 1010.8 |
| 20260504204504 | 76 | 190 | 1.0 | 1.0 | 0.00 | 0.00 | 0.00 | 36 | 1011.0 |
| 20260504204003 | 76 | 17 | 0.0 | 1.0 | 0.00 | 0.00 | 0.00 | 34 | 1011.0 |
| 20260504203500 | 76 | 223 | 2.0 | 2.0 | 0.00 | 0.00 | 0.00 | 35 | 1011.1 |
| 20260504202956 | 75 | 305 | 1.0 | 1.0 | 0.00 | 0.00 | 0.00 | 34 | 1011.0 |
| 20260504202452 | 76 | 193 | 4.0 | 4.0 | 0.00 | 0.00 | 0.00 | 35 | 1011.2 |
| 20260504201949 | 75 | 300 | 2.0 | 3.0 | 0.00 | 0.00 | 0.00 | 34 | 1011.1 |
| 20260504201447 | 75 | 265 | 2.0 | 3.0 | 0.00 | 0.00 | 0.00 | 36 | 1011.3 |
| 20260504200944 | 75 | 44 | 2.0 | 2.0 | 0.00 | 0.00 | 0.00 | 37 | 1011.2 |
| 20260504200441 | 75 | 241 | 1.0 | 1.0 | 0.00 | 0.00 | 0.00 | 34 | 1011.4 |
| 20260504195937 | 75 | 74 | 0.0 | 1.0 | 0.00 | 0.00 | 0.00 | 36 | 1011.3 |
| 20260504195433 | 76 | 264 | 1.0 | 1.0 | 0.00 | 0.00 | 0.00 | 34 | 1011.6 |
| 20260504194930 | 76 | 290 | 1.0 | 2.0 | 0.00 | 0.00 | 0.00 | 33 | 1011.6 |
| 20260504194426 | 76 | 4 | 0.0 | 0.0 | 0.00 | 0.00 | 0.00 | 34 | 1011.6 |
| 20260504193922 | 76 | 139 | 3.0 | 3.0 | 0.00 | 0.00 | 0.00 | 33 | 1011.7 |
| 20260504193420 | 77 | 68 | 1.0 | 1.0 | 0.00 | 0.00 | 0.00 | 36 | 1012.0 |
| 20260504192918 | 77 | 259 | 1.0 | 2.0 | 0.00 | 0.00 | 0.00 | 34 | 1012.0 |
| 20260504192415 | 77 | 10 | 1.0 | 1.0 | 0.00 | 0.00 | 0.00 | 35 | 1012.1 |
| 20260504191914 | 77 | 123 | 0.0 | 0.0 | 0.00 | 0.00 | 0.00 | 35 | 1012.1 |
| 20260504191411 | 77 | 99 | 1.0 | 1.0 | 0.00 | 0.00 | 0.00 | 35 | 1012.2 |
| 20260504190906 | 77 | 80 | 1.0 | 2.0 | 0.00 | 0.00 | 0.00 | 35 | 1012.2 |
| 20260504190403 | 77 | 116 | 0.0 | 0.0 | 0.00 | 0.00 | 0.00 | 37 | 1012.3 |
| 20260504185859 | 77 | 204 | 1.0 | 2.0 | 0.00 | 0.00 | 0.00 | 38 | 1012.5 |
| 20260504185357 | 77 | 208 | 0.0 | 1.0 | 0.00 | 0.00 | 0.00 | 34 | 1012.6 |
| 20260504184852 | 76 | 142 | 1.0 | 2.0 | 0.00 | 0.00 | 0.00 | 35 | 1012.4 |
| 20260504184348 | 76 | 222 | 1.0 | 2.0 | 0.00 | 0.00 | 0.00 | 33 | 1012.8 |
| 20260504183844 | 77 | 275 | 1.0 | 2.0 | 0.00 | 0.00 | 0.00 | 36 | 1012.9 |
| 20260504183342 | 78 | 165 | 1.0 | 1.0 | 0.00 | 0.00 | 0.00 | 32 | 1012.9 |
| 20260504182839 | 77 | 275 | 0.0 | 0.0 | 0.00 | 0.00 | 0.00 | 35 | 1012.7 |
| 20260504182337 | 77 | 169 | 1.0 | 1.0 | 0.00 | 0.00 | 0.00 | 35 | 1012.7 |
| 20260504181833 | 76 | 184 | 3.0 | 4.0 | 0.00 | 0.00 | 0.00 | 34 | 1012.9 |
| 20260504181331 | 76 | 328 | 2.0 | 2.0 | 0.00 | 0.00 | 0.00 | 31 | 1012.9 |
| 20260504180830 | 76 | 110 | 0.0 | 1.0 | 0.00 | 0.00 | 0.00 | 31 | 1013.1 |
| 20260504180328 | 76 | 273 | 0.0 | 1.0 | 0.00 | 0.00 | 0.00 | 32 | 1013.1 |
| 20260504175826 | 76 | 152 | 1.0 | 1.0 | 0.00 | 0.00 | 0.00 | 33 | 1013.1 |
| 20260504175322 | 76 | 128 | 0.0 | 1.0 | 0.00 | 0.00 | 0.00 | 38 | 1013.3 |
| 20260504174821 | 75 | 330 | 1.0 | 1.0 | 0.00 | 0.00 | 0.00 | 34 | 1013.4 |
| 20260504174318 | 76 | 265 | 0.0 | 1.0 | 0.00 | 0.00 | 0.00 | 31 | 1013.1 |
| 20260504173814 | 74 | 299 | 0.0 | 0.0 | 0.00 | 0.00 | 0.00 | 32 | 1013.2 |
| 20260504173311 | 75 | 348 | 2.0 | 2.0 | 0.00 | 0.00 | 0.00 | 33 | 1013.3 |
| 20260504172808 | 76 | 193 | 1.0 | 1.0 | 0.00 | 0.00 | 0.00 | 36 | 1013.5 |
| 20260504172305 | 75 | 208 | 2.0 | 2.0 | 0.00 | 0.00 | 0.00 | 35 | 1013.6 |
| 20260504171800 | 74 | 79 | 1.0 | 1.0 | 0.00 | 0.00 | 0.00 | 33 | 1013.7 |
| 20260504171258 | 75 | 338 | 0.0 | 0.0 | 0.00 | 0.00 | 0.00 | 36 | 1013.6 |
| 20260504170755 | 76 | 211 | 2.0 | 3.0 | 0.00 | 0.00 | 0.00 | 34 | 1013.8 |
| 20260504170252 | 75 | 244 | 0.0 | 1.0 | 0.00 | 0.00 | 0.00 | 32 | 1013.6 |
| 20260504160210 | 72 | 217 | 1.0 | 2.0 | 0.00 | 0.00 | 0.00 | 35 | 1014.7 |
| 20260504151138 | 71 | 207 | 1.0 | 1.0 | 0.00 | 0.00 | 0.00 | 38 | 1015.1 |
| 20260504150636 | 71 | 359 | 0.0 | 0.0 | 0.00 | 0.00 | 0.00 | 35 | 1015.1 |
| 20260504150132 | 71 | 255 | 0.0 | 0.0 | 0.00 | 0.00 | 0.00 | 36 | 1015.1 |
| 20260504141101 | 68 | 351 | 0.0 | 1.0 | 0.00 | 0.00 | 0.00 | 43 | 1015.2 |
| 20260504140557 | 67 | 57 | 0.0 | 0.0 | 0.00 | 0.00 | 0.00 | 45 | 1015.5 |
| 20260504130522 | 61 | 267 | 2.0 | 2.0 | 0.00 | 0.00 | 0.00 | 49 | 1015.7 |
| 20260504110409 | 47 | 119 | 0.0 | 0.0 | 0.00 | 0.00 | 0.00 | 76 | 1016.1 |
| 20260504100326 | 48 | 46 | 0.0 | 0.0 | 0.00 | 0.00 | 0.00 | 71 | 1016.3 |
| 20260504081720 | 47 | 18 | 0.0 | 0.0 | 0.00 | 0.00 | 0.00 | 70 | 1016.5 |
| 20260504081216 | 47 | 18 | 0.0 | 0.0 | 0.00 | 0.00 | 0.00 | 69 | 1016.8 |
| 20260504080712 | 46 | 29 | 0.0 | 0.0 | 0.00 | 0.00 | 0.00 | 70 | 1016.5 |
| 20260504080209 | 46 | 55 | 0.0 | 0.0 | 0.00 | 0.00 | 0.00 | 70 | 1016.6 |
| 20260504070137 | 47 | 99 | 0.0 | 0.0 | 0.00 | 0.00 | 0.00 | 65 | 1016.7 |
| 20260504050525 | 44 | 86 | 0.0 | 0.0 | 0.00 | 0.00 | 0.00 | 71 | 1016.6 |
| 20260504050022 | 44 | 86 | 0.0 | 0.0 | 0.00 | 0.00 | 0.00 | 70 | 1016.7 |
| 20260504045519 | 44 | 86 | 0.0 | 0.0 | 0.00 | 0.00 | 0.00 | 69 | 1016.7 |
| 20260504045014 | 44 | 83 | 0.0 | 0.0 | 0.00 | 0.00 | 0.00 | 69 | 1016.8 |
| 20260504044512 | 44 | 83 | 0.0 | 0.0 | 0.00 | 0.00 | 0.00 | 68 | 1016.7 |
| 20260504044009 | 44 | 86 | 0.0 | 0.0 | 0.00 | 0.00 | 0.00 | 69 | 1016.8 |
| 20260504043506 | 44 | 86 | 0.0 | 0.0 | 0.00 | 0.00 | 0.00 | 70 | 1017.0 |
| 20260504043004 | 44 | 86 | 0.0 | 0.0 | 0.00 | 0.00 | 0.00 | 68 | 1017.0 |
| 20260504042500 | 44 | 116 | 0.0 | 0.0 | 0.00 | 0.00 | 0.00 | 68 | 1016.7 |
| 20260504041957 | 44 | 114 | 0.0 | 0.0 | 0.00 | 0.00 | 0.00 | 68 | 1016.8 |
| 20260504041453 | 43 | 89 | 0.0 | 0.0 | 0.00 | 0.00 | 0.00 | 69 | 1016.7 |
| 20260504040949 | 43 | 83 | 0.0 | 0.0 | 0.00 | 0.00 | 0.00 | 71 | 1016.8 |
| 20260504040447 | 43 | 83 | 0.0 | 0.0 | 0.00 | 0.00 | 0.00 | 73 | 1016.8 |
| 20260504035943 | 42 | 74 | 0.0 | 0.0 | 0.00 | 0.00 | 0.00 | 76 | 1016.7 |
| 20260504035441 | 42 | 79 | 0.0 | 0.0 | 0.00 | 0.00 | 0.00 | 77 | 1016.8 |
| 20260504034937 | 42 | 113 | 0.0 | 0.0 | 0.00 | 0.00 | 0.00 | 77 | 1016.7 |
| 20260504034434 | 42 | 31 | 0.0 | 0.0 | 0.00 | 0.00 | 0.00 | 78 | 1016.6 |
| 20260504033931 | 42 | 40 | 0.0 | 0.0 | 0.00 | 0.00 | 0.00 | 79 | 1016.5 |
| 20260504033429 | 42 | 55 | 0.0 | 0.0 | 0.00 | 0.00 | 0.00 | 80 | 1016.4 |
| 20260504032926 | 42 | 59 | 0.0 | 0.0 | 0.00 | 0.00 | 0.00 | 80 | 1016.5 |
| 20260504032423 | 42 | 68 | 0.0 | 0.0 | 0.00 | 0.00 | 0.00 | 78 | 1016.4 |
| 20260504031919 | 42 | 68 | 0.0 | 0.0 | 0.00 | 0.00 | 0.00 | 78 | 1016.4 |
| 20260504031417 | 42 | 69 | 0.0 | 0.0 | 0.00 | 0.00 | 0.00 | 78 | 1016.4 |
| 20260504030913 | 42 | 82 | 0.0 | 0.0 | 0.00 | 0.00 | 0.00 | 77 | 1016.3 |
| 20260504030410 | 42 | 80 | 0.0 | 0.0 | 0.00 | 0.00 | 0.00 | 77 | 1016.1 |
| 20260504025906 | 43 | 11 | 0.0 | 1.0 | 0.00 | 0.00 | 0.00 | 77 | 1016.1 |
| 20260504025403 | 42 | 23 | 0.0 | 0.0 | 0.00 | 0.00 | 0.00 | 77 | 1016.3 |